This demonstration page uses our WeatherBlox Daily Observations layout. Learn more.

Left ArrowRight Arrow

Hourly Observations for December 17, 2015

Temp ( °F °C ) Dew Point ( °F °C ) Humidity (%) Winds ( mph kmh ) Pressure ( in mb ) Visibility ( mi km ) Precip ( " mm )
12:53 am 00:53 Cloudy 57 13.9 48 8.9 72 72 WSW 10 17 29.76 1008 10 16 0.00 0.00
1:49 am 01:49 Mostly Cloudy 48 9 34 1 58 58 NW 18 30 29.83 1010 10 16 0.00 0.00
1:53 am 01:53 Mostly Cloudy 48 8.9 32 0 54 54 WNW 17 28 29.78 1009 10 16 0.00 0.00
2:11 am 02:11 Mostly Cloudy 46 7.8 32 0 58 58 WNW 10 17 29.83 1010 10 16 0.00 0.00
2:53 am 02:53 Partly Cloudy 45 7.2 33 0.6 63 63 NW 13 20 29.80 1009 10 16 0.00 0.00
3:18 am 03:18 Mostly Cloudy 45 7.2 33 0.6 63 63 WNW 9 15 29.85 1011 10 16 0.00 0.00
3:53 am 03:53 Cloudy 44 6.7 33 0.6 65 65 NW 12 19 29.82 1010 10 16 0.00 0.00
4:21 am 04:21 Cloudy 42 5.6 33 0.6 71 71 NW 10 17 29.85 1011 10 16 0.00 0.00
4:53 am 04:53 Mostly Clear 40 4.4 32 0 73 73 NW 10 17 29.84 1011 10 16 0.00 0.00
5:53 am 05:53 Mostly Clear 39 3.9 32 0 76 76 WNW 8 13 29.85 1011 10 16 0.00 0.00
6:53 am 06:53 Clear 37 2.8 28 -2.2 70 70 NW 9 15 29.85 1011 10 16 0.00 0.00
7:53 am 07:53 Mostly Sunny 32 0 27 -2.8 82 82 Calm 29.87 1012 10 16 0.00 0.00
8:53 am 08:53 Mostly Sunny 36 2.2 29 -1.7 76 76 WNW 5 7 29.88 1012 10 16 0.00 0.00
9:53 am 09:53 Sunny 39 3.9 28 -2.2 65 65 NW 9 15 29.89 1012 10 16 0.00 0.00
10:53 am 10:53 Mostly Cloudy 40 4.4 28 -2.2 63 63 W 9 15 29.91 1013 10 16 0.00 0.00
11:01 am 11:01 Partly Cloudy 39 3.9 27 -2.8 62 62 W 9 15 29.94 1014 10 16 0.00 0.00
11:33 am 11:33 Mostly Cloudy 41 5 28 -2.2 60 60 NW 14 22 29.94 1014 10 16 0.00 0.00
11:53 am 11:53 Mostly Cloudy 40 4.4 27 -2.8 60 60 W 6 9 29.91 1013 10 16 0.00 0.00
12:53 pm 12:53 Cloudy 39 3.9 27 -2.8 62 62 NW 13 20 29.91 1013 10 16 0.00 0.00
1:14 pm 13:14 Cloudy 39 3.9 27 -2.8 62 62 WNW 17 28 29.94 1014 10 16 0.00 0.00
1:53 pm 13:53 Mostly Cloudy 39 3.9 27 -2.8 62 62 WNW 13 20 29.91 1013 10 16 0.00 0.00
2:53 pm 14:53 Cloudy 37 2.8 25 -3.9 62 62 WNW 15 24 29.92 1013 10 16 0.00 0.00
3:53 pm 15:53 Cloudy 36 2.2 25 -3.9 64 64 W 8 13 29.94 1014 10 16 0.00 0.00
4:53 pm 16:53 Cloudy 35 1.7 25 -3.9 67 67 W 9 15 29.96 1014 10 16 0.00 0.00
5:53 pm 17:53 Cloudy 34 1.1 25 -3.9 70 70 NW 12 19 29.97 1015 10 16 0.00 0.00
6:53 pm 18:53 Cloudy 33 0.6 24 -4.4 70 70 NW 13 20 29.99 1016 10 16 0.00 0.00
7:53 pm 19:53 Cloudy 33 0.6 23 -5 66 66 WNW 8 13 30.01 1016 10 16 0.00 0.00
8:53 pm 20:53 Cloudy 33 0.6 24 -4.4 70 70 WNW 10 17 30.02 1017 10 16 0.00 0.00
9:53 pm 21:53 Cloudy 33 0.6 25 -3.9 72 72 NNW 9 15 30.02 1017 10 16 0.00 0.00
10:53 pm 22:53 Cloudy 33 0.6 24 -4.4 70 70 WNW 9 15 30.02 1017 10 16 0.00 0.00
11:53 pm 23:53 Cloudy 33 0.6 21 -6.1 61 61 NW 8 13 30.02 1017 10 16 0.00 0.00

Powered by AerisWeather